Tracking 30922 objects as of 2-Jul-2025
HD Live streaming from Space Station
objects crossing your sky now

LANDSAT 4

Track LANDSAT 4 now!
10-day predictions
LANDSAT 4 is classified as:


NORAD ID: 13367
Int'l Code: 1982-072A
Perigee: 357.6 km
Apogee: 365.1 km
Inclination: 98.2 °
Period: 91.6 minutes
Semi major axis: 6732 km
RCS: 7.754 m2 (large)
Launch date: July 16, 1982
Source: United States (US)
Launch site: AIR FORCE WESTERN TEST RANGE (AFWTR)
Your satellite tracking list
FENGYUN 1C DEB
Track 1 satellite(s)




NASA's NSSDC Master Catalog

Two Line Element Set (TLE):
1 13367U 82072A   25182.86159925  .00065106  00000-0  50411-3 0  9994
2 13367  98.1815 306.9517 0005566 177.0655 183.0640 15.71653467332137
Source of the keplerian elements: AFSPC